Theta_e
358 361 362 359 360 358 350 345 323 327 328 315 316 318 318 330 330 330 327 333 329 333 336 335 335 332 331 327 328 331 332 326 326 319 320 338 354 354 356 357 356 358 359 361 363 362 366 363 362 362 363 363 364 364 365 364 363 363 364 362 363 363 363 364 363 363 363 363 363 363 363 363 363 363 363 363 363 363 363 363 363 363 363 363 363 364 364 364 364 364 363 363 363 364 365 364 364
360 361 360 359 356 351 338 346 326 319 319 313 317 321 324 328 329 325 328 331 328 331 335 335 335 335 332 332 332 333 332 335 337 335 342 348 353 353 356 357 357 355 358 360 362 363 364 364 361 361 362 363 363 364 364 363 364 363 363 363 364 363 363 363 362 360 361 362 364 364 363 363 363 363 363 363 363 363 363 363 363 364 363 363 363 364 363 363 364 363 363 363 364 364 364 363 363
361 361 359 358 353 348 343 341 318 316 313 309 316 320 329 325 324 327 330 331 333 335 335 334 335 335 332 332 328 330 325 339 340 341 342 351 347 352 357 358 358 357 359 361 361 360 363 362 361 360 362 363 363 363 362 363 364 363 362 363 362 363 363 363 363 363 363 364 364 364 363 363 363 363 363 364 364 363 362 362 362 362 362 362 363 363 363 363 363 363 363 363 364 364 363 363 363
362 361 356 355 341 346 332 331 322 316 311 312 314 324 327 326 326 330 332 332 335 335 333 332 333 335 333 329 329 335 332 334 341 340 339 344 347 353 357 357 361 359 360 360 361 362 362 364 361 362 363 362 362 362 362 362 363 363 363 362 362 363 362 362 362 362 363 364 363 363 363 364 363 363 363 364 364 363 363 363 363 363 362 362 363 362 362 363 363 363 363 363 363 363 363 363 363
360 359 359 351 342 331 333 327 319 319 311 314 313 324 327 328 329 331 332 334 334 334 333 331 330 336 338 334 335 330 332 339 341 343 343 349 353 355 357 354 358 359 359 362 363 362 365 364 363 363 362 362 362 362 362 363 364 363 362 362 363 363 363 362 362 362 363 363 363 363 363 364 364 364 363 363 364 364 363 363 363 363 363 364 363 363 363 363 363 363 363 363 362 361 362 362 363
359 358 361 354 339 345 335 323 318 316 321 324 320 325 329 330 330 330 330 333 335 336 334 332 329 330 332 335 340 336 342 336 341 344 347 348 352 356 357 358 357 359 360 362 362 363 363 364 362 362 362 362 362 362 363 362 364 363 362 362 361 362 362 363 363 363 363 363 363 363 363 364 364 364 364 363 363 363 362 363 364 363 364 364 364 363 363 363 364 363 363 362 362 361 361 362 363
353 352 351 349 345 343 322 320 318 317 323 332 325 327 330 331 332 330 330 330 334 334 336 331 334 333 330 336 339 344 345 345 343 343 349 351 353 356 357 357 357 358 360 362 363 364 364 363 362 362 362 362 362 362 362 362 364 363 362 362 361 362 362 361 363 363 362 363 363 362 362 364 364 363 364 364 364 363 364 363 364 363 364 364 364 364 363 363 364 363 362 362 362 362 362 363 363
358 346 345 336 331 333 321 321 321 323 323 335 334 330 333 334 333 332 330 329 326 328 331 333 334 330 328 338 333 343 347 349 348 351 351 352 354 355 357 356 356 356 359 361 364 363 364 363 362 362 362 362 362 362 361 361 363 363 362 362 361 361 362 361 361 361 362 362 363 363 363 364 363 364 364 363 363 363 364 363 363 363 364 364 363 364 364 363 363 363 363 363 362 363 362 363 363
351 347 348 338 327 329 321 319 321 330 328 333 333 339 338 336 335 332 330 329 329 331 331 332 332 328 330 336 336 343 347 350 351 353 351 352 353 356 356 356 355 355 358 360 361 361 365 363 363 362 362 362 362 362 361 362 362 364 362 361 361 361 361 361 361 361 361 361 362 362 363 363 363 364 363 364 364 363 363 363 363 363 364 364 364 364 364 364 364 364 363 363 363 363 363 363 363
348 344 333 334 331 320 320 318 318 325 328 335 333 335 336 337 335 334 329 328 328 330 331 333 332 331 333 330 335 341 345 350 350 349 350 352 355 356 356 356 356 356 357 359 360 362 365 365 363 363 362 362 362 361 362 362 362 363 362 360 361 361 361 361 361 361 361 361 362 361 362 362 362 363 364 363 364 363 363 363 364 364 364 364 364 363 363 364 364 364 364 364 364 364 365 364 365
337 345 345 330 323 320 318 318 321 327 329 333 335 340 341 340 334 333 332 329 332 328 331 334 330 330 333 333 336 347 350 349 347 346 350 352 355 355 355 357 356 356 356 359 362 363 361 365 364 363 362 363 362 361 362 362 361 363 361 360 360 360 361 360 361 361 360 361 360 360 359 359 360 361 363 363 363 363 364 364 364 363 364 363 363 363 364 365 364 365 365 365 366 366 367 367 367
333 335 335 325 322 320 321 320 322 326 330 332 332 340 340 337 335 330 330 327 328 329 329 333 329 335 330 331 334 345 348 347 347 348 350 353 354 355 356 355 355 355 357 359 361 361 364 366 365 364 363 362 362 362 362 362 362 363 360 360 361 360 360 360 360 359 359 359 359 359 358 356 356 357 362 364 363 364 364 363 363 363 363 364 364 364 364 364 364 364 364 365 366 366 366 368 369
335 336 330 324 323 325 326 323 323 325 326 331 331 338 341 335 333 332 332 331 331 327 328 334 334 333 327 331 340 344 344 346 347 349 350 351 353 355 356 355 355 356 358 360 360 362 364 365 366 367 363 363 362 362 362 362 363 362 359 359 359 359 360 359 359 358 358 357 359 359 358 355 355 357 362 364 364 364 364 363 363 363 363 364 364 363 363 363 363 363 364 365 367 367 368 369 370
337 336 332 321 330 326 323 324 326 319 322 331 339 340 340 336 338 336 334 331 331 329 331 334 335 336 332 334 336 337 342 347 347 349 350 352 354 354 354 355 355 356 358 359 359 362 364 367 366 365 364 366 366 365 361 361 362 360 358 357 357 360 359 358 357 357 358 357 357 357 356 355 355 357 362 364 364 364 364 363 362 363 363 363 362 362 362 363 363 363 364 366 368 369 369 371 372
337 342 331 326 324 326 328 318 320 319 323 333 337 339 339 343 340 338 338 331 332 336 335 338 335 331 325 329 331 336 342 347 348 348 350 351 353 353 354 355 355 356 356 356 359 365 366 366 365 367 368 366 368 365 362 361 359 358 358 357 358 359 358 357 357 356 357 358 356 357 356 353 356 359 364 363 364 362 361 362 363 364 364 364 363 363 364 363 364 365 365 367 368 369 370 371 372
344 340 334 321 320 321 324 325 327 322 323 335 338 341 338 339 341 337 339 342 334 336 336 329 339 333 330 333 335 341 345 347 348 349 350 350 351 352 353 353 353 354 355 356 358 363 366 366 365 365 367 366 367 363 358 359 358 358 358 358 358 358 358 357 356 356 356 355 357 356 356 355 354 363 364 364 363 363 362 363 363 364 365 365 365 364 365 364 363 364 366 366 368 369 370 371 372
338 336 324 328 319 321 324 324 323 319 329 335 339 339 333 335 343 343 345 343 334 333 336 335 335 339 333 336 342 345 347 349 350 348 348 348 349 348 351 352 353 354 354 355 356 359 362 366 366 365 367 367 365 365 357 357 357 356 357 356 357 358 357 356 354 355 355 355 356 356 354 355 357 365 365 364 363 363 361 364 364 364 365 366 363 362 361 360 362 365 366 368 368 369 372 371 372
339 330 326 322 324 323 329 328 329 330 331 333 336 339 337 333 338 339 345 339 338 335 335 337 339 339 342 344 347 347 348 348 348 346 344 345 346 345 345 348 348 349 352 354 356 358 358 360 365 366 366 367 367 365 366 357 358 354 355 357 356 358 356 354 356 358 356 356 355 354 355 355 357 365 365 360 363 365 364 360 361 362 360 360 358 360 359 362 364 364 365 367 368 369 365 361 364
328 327 324 318 323 326 333 336 336 334 334 337 338 338 339 338 340 339 336 335 334 332 334 336 336 339 343 345 345 346 346 346 345 344 343 342 343 342 343 347 346 347 349 352 354 354 357 359 361 362 365 367 367 367 365 363 357 357 356 356 353 354 356 357 354 355 355 355 355 355 357 358 362 364 365 363 364 355 358 361 358 357 359 357 360 360 362 363 364 363 364 366 365 364 375 358 354
332 331 321 324 325 328 334 335 335 338 338 336 335 337 339 339 344 342 339 333 332 329 330 333 334 335 339 342 344 344 345 346 345 343 342 343 343 343 344 344 346 348 348 350 352 355 357 358 359 361 364 366 367 366 366 365 366 361 356 355 355 356 356 355 356 357 361 359 357 359 365 368 364 366 360 360 366 361 361 363 355 360 361 362 360 368 369 366 364 365 364 363 370 365 359 358 353
332 329 323 324 328 327 332 336 337 337 340 338 337 336 337 340 343 341 339 332 331 332 334 332 333 336 338 340 342 343 344 344 344 343 342 342 343 343 345 345 347 349 350 351 352 353 357 358 359 362 363 364 366 365 366 362 366 364 363 364 361 364 361 358 363 359 367 366 369 369 365 362 360 361 363 361 359 359 357 358 360 360 363 364 361 362 360 362 364 359 364 361 358 356 353 356 355
332 323 325 326 329 326 336 338 338 339 341 340 337 334 339 343 343 341 338 332 327 334 335 336 337 339 339 339 341 343 343 342 343 343 342 341 342 343 345 348 350 350 352 350 351 353 354 357 358 360 361 362 365 364 364 363 364 363 363 364 366 366 367 365 364 365 364 368 368 366 363 362 360 359 361 360 359 358 357 355 360 361 362 361 362 360 358 360 358 356 356 355 354 355 353 355 354
325 327 327 329 328 327 337 339 340 340 338 336 335 340 342 343 340 342 339 336 340 339 338 338 339 341 341 342 341 341 341 342 343 343 343 342 344 345 345 347 349 348 350 351 353 354 355 356 359 360 359 360 361 366 364 363 361 364 365 365 364 363 366 364 364 361 362 364 366 365 359 358 356 354 357 358 356 358 356 355 359 363 362 360 361 358 358 358 356 353 354 356 352 352 351 354 356
323 321 328 329 333 331 336 338 341 339 339 340 342 342 340 339 335 344 339 341 341 341 338 340 342 342 342 341 340 340 341 342 343 345 345 345 345 346 347 347 349 351 352 351 352 353 356 355 360 360 361 360 362 364 364 363 362 363 364 366 364 363 363 361 361 361 362 362 363 365 362 359 354 352 356 355 352 357 357 361 363 360 362 359 361 361 358 356 354 353 357 355 353 355 350 352 352
322 322 326 329 330 334 336 338 338 340 341 344 342 338 339 341 342 341 339 340 339 340 340 341 341 341 341 341 340 340 341 343 344 346 347 348 347 348 350 350 349 351 350 351 352 352 353 358 359 358 360 361 360 360 360 361 361 363 364 363 363 364 363 360 361 363 362 361 362 363 364 356 356 353 353 354 355 356 358 360 360 359 361 360 361 358 358 359 355 354 354 353 355 355 351 352 351
323 324 324 331 329 335 338 338 340 340 343 344 340 338 339 342 346 340 341 340 340 340 340 339 340 340 340 340 340 340 341 343 344 345 346 348 348 347 348 350 349 348 349 350 350 352 354 357 356 357 359 360 360 361 360 360 361 361 362 363 364 365 363 363 361 357 360 361 358 362 362 358 355 351 353 353 357 357 358 359 361 361 358 359 358 359 359 357 355 352 353 355 351 353 353 348 351
327 327 329 331 338 338 339 338 338 339 340 342 336 336 339 344 338 331 341 340 339 340 338 340 341 339 340 339 341 342 341 342 344 346 346 346 347 348 349 349 348 349 350 350 351 352 354 354 354 358 358 362 360 357 360 362 362 361 363 363 364 364 364 363 361 359 360 359 361 363 363 362 358 355 354 355 357 356 359 361 361 362 361 361 360 360 359 359 358 356 354 354 356 355 352 351 353
331 331 332 333 338 340 339 339 340 341 339 342 340 336 339 340 337 334 339 340 339 339 337 338 338 338 339 340 341 343 344 344 345 345 343 344 346 348 348 349 349 349 349 350 352 355 353 353 354 357 358 359 361 357 361 360 361 361 364 363 363 363 365 362 360 359 359 359 361 362 362 359 361 358 358 359 357 357 358 358 360 362 361 361 362 361 359 359 360 358 357 358 357 357 356 356 355
332 334 330 332 335 335 338 337 340 341 339 342 342 334 330 337 332 339 340 338 340 339 338 338 339 342 339 342 342 343 343 345 345 344 343 346 348 348 348 350 350 350 352 352 354 353 353 354 354 357 357 359 360 358 358 360 360 359 361 362 363 361 363 362 361 359 361 361 361 362 363 363 363 359 356 361 361 357 358 360 360 363 364 364 363 361 359 362 360 358 359 357 356 357 355 356 353
333 331 329 329 331 328 339 343 342 339 342 343 340 316 321 331 338 341 341 339 339 341 339 337 336 337 341 343 342 342 345 345 343 344 347 347 348 348 349 350 352 351 352 355 354 352 354 355 356 356 357 358 360 358 359 358 360 360 361 360 363 362 360 360 361 360 360 360 361 361 361 362 361 359 359 361 360 356 359 360 362 362 362 363 364 363 359 361 358 357 357 356 352 356 354 356 351
329 330 327 322 319 320 336 336 340 335 345 344 339 315 321 331 338 340 343 342 338 336 335 338 338 338 342 340 339 342 343 345 343 345 347 348 349 350 350 351 352 351 353 354 354 355 355 356 356 356 358 358 357 359 359 359 360 358 358 359 359 361 361 359 359 360 358 358 358 357 361 362 363 361 362 361 359 358 358 359 360 363 365 366 362 361 362 360 360 359 357 357 357 354 353 355 351
327 318 317 319 313 319 332 339 336 329 342 342 335 321 320 330 335 342 345 345 340 338 336 337 336 334 337 340 338 338 341 343 344 344 345 348 349 350 350 351 353 353 352 354 355 355 354 356 358 356 356 358 358 359 361 359 357 357 357 357 361 361 358 359 358 357 356 358 359 359 362 362 362 363 363 364 358 358 358 359 360 365 365 366 364 363 363 361 360 357 359 357 354 352 353 353 355
320 317 312 313 315 318 327 335 340 340 339 340 333 322 329 332 338 342 345 344 342 338 337 334 337 337 337 341 339 338 341 342 344 343 345 347 350 350 351 352 354 354 352 352 355 355 354 355 356 356 356 356 358 358 360 358 357 355 356 356 356 360 358 357 359 359 356 357 359 357 361 361 362 362 364 365 361 360 360 362 360 364 367 367 362 363 360 361 360 353 360 360 359 354 352 350 351
312 314 312 311 310 310 315 330 339 340 336 330 335 328 327 329 336 341 344 344 342 339 338 336 338 337 337 339 337 338 341 341 340 343 344 347 349 350 351 354 353 353 352 353 357 356 355 356 356 357 358 357 359 359 358 357 359 357 356 356 359 359 357 357 359 359 357 357 360 359 361 361 361 363 364 363 362 359 364 363 362 365 367 367 365 364 362 361 362 358 359 359 357 355 354 352 351
307 313 309 311 312 316 313 313 331 335 333 329 331 327 328 331 334 337 342 343 341 339 340 337 337 337 336 336 337 337 338 340 341 343 342 347 347 348 351 353 353 354 352 352 356 359 358 357 358 358 358 358 358 359 358 357 354 355 354 355 357 359 360 358 359 358 356 359 358 361 365 360 360 363 363 364 363 360 364 364 364 367 367 366 365 363 361 363 362 361 357 360 362 361 355 356 353
307 307 307 308 308 309 310 314 328 326 329 327 326 325 326 331 332 335 339 341 339 339 340 340 337 338 337 337 335 336 338 338 341 341 343 348 347 347 350 350 352 354 351 352 356 358 359 359 358 360 361 357 358 358 359 356 352 351 350 353 355 357 357 358 360 358 359 357 359 361 362 361 361 362 363 363 365 365 365 364 365 366 366 364 364 361 361 360 362 361 362 355 358 359 361 359 357
308 308 308 308 308 310 316 323 327 330 328 325 325 326 327 330 332 335 337 340 339 339 338 339 338 336 337 337 335 336 338 337 340 341 343 346 345 347 349 350 351 353 354 353 355 358 359 358 359 358 359 359 357 355 356 353 350 350 350 350 351 353 356 357 356 357 357 357 360 360 361 358 362 363 362 363 363 366 369 367 367 366 366 367 366 364 364 365 366 362 362 366 354 355 354 355 357
308 308 307 308 308 308 317 324 334 336 331 323 327 325 327 329 334 336 338 336 336 338 338 338 339 338 337 338 338 339 341 339 339 340 341 343 345 346 347 349 351 350 353 353 355 358 360 358 358 359 359 358 356 355 356 356 356 349 349 350 350 351 354 354 355 357 356 356 362 363 362 359 361 361 361 364 367 369 368 363 366 367 364 368 367 367 365 367 366 363 362 358 361 356 354 354 355
309 308 308 307 310 317 328 331 332 337 333 324 326 324 325 331 334 336 337 337 339 341 342 341 340 340 339 338 339 342 341 339 339 340 341 342 344 345 347 349 350 351 353 354 357 358 360 358 360 361 359 357 356 355 356 356 356 355 352 353 353 351 355 356 355 356 357 356 359 361 360 361 362 360 361 364 366 367 367 366 366 367 368 368 368 367 367 364 365 363 362 358 355 356 355 355 358
308 308 307 307 309 307 313 326 330 334 330 324 325 321 325 333 334 333 336 336 339 343 343 342 343 341 340 339 340 342 338 339 339 341 340 340 343 347 347 349 352 349 349 352 355 357 359 360 361 362 360 358 356 356 356 355 355 355 357 359 357 356 354 357 359 359 359 357 356 356 360 362 361 357 358 359 362 368 368 367 366 366 370 369 366 366 366 363 364 363 360 360 361 350 349 350 358
309 308 307 308 307 308 309 320 331 332 331 331 325 321 320 327 327 330 335 336 338 339 339 341 342 344 344 345 343 345 342 341 341 343 341 340 341 345 349 350 352 348 348 351 355 356 356 358 361 363 361 358 356 357 360 359 357 357 358 359 359 358 358 357 357 355 357 358 356 355 356 360 360 356 356 358 361 369 370 368 368 368 368 367 367 365 364 360 363 362 363 359 360 354 348 352 355
307 308 309 309 308 308 315 322 322 320 318 325 324 307 310 322 325 328 332 334 334 337 335 337 339 342 344 343 341 343 344 344 343 343 342 342 343 345 350 352 351 350 349 351 353 354 357 358 361 363 362 361 357 359 360 359 357 356 355 352 349 350 349 347 348 350 351 353 351 353 356 357 358 357 356 357 359 365 367 368 369 368 365 367 367 363 364 361 362 363 362 361 357 363 358 352 351
305 306 310 309 308 309 312 320 316 305 304 319 327 305 303 317 321 324 329 331 331 335 334 336 339 341 341 342 343 343 344 345 345 344 343 340 341 343 347 351 352 350 350 349 351 354 357 359 362 361 362 361 360 357 357 355 357 355 353 350 351 349 347 349 352 353 352 352 352 353 355 356 357 355 354 357 359 364 366 366 370 367 366 366 368 366 363 360 357 359 363 362 361 364 361 355 355
304 307 308 307 307 307 310 311 310 307 312 323 323 314 305 308 320 325 329 329 330 330 333 336 339 340 340 341 341 344 343 343 344 344 345 342 341 342 344 349 350 350 349 348 350 354 359 362 363 362 362 362 361 358 357 356 354 354 353 353 350 351 349 351 354 356 356 356 352 355 355 355 358 355 352 357 360 361 363 363 366 367 367 366 366 365 362 361 363 364 366 366 364 366 363 359 357
308 311 310 309 309 310 311 310 310 310 309 306 311 316 305 305 319 327 326 325 325 327 330 333 338 340 340 341 340 342 342 343 344 345 344 341 342 343 344 347 350 350 350 349 351 355 358 362 364 363 361 362 360 358 357 357 356 354 353 353 352 352 354 355 357 358 358 357 354 355 355 354 355 357 356 356 360 359 361 361 365 367 366 366 367 364 363 361 363 365 368 365 365 364 365 363 361
313 317 315 313 313 311 311 309 309 309 305 301 306 310 301 304 312 321 327 322 324 326 329 332 337 339 340 341 341 342 343 344 344 346 345 343 344 346 346 346 348 349 349 350 352 354 357 361 363 362 360 360 361 358 357 357 356 356 353 354 354 353 353 355 356 356 356 357 354 355 356 354 351 353 356 359 360 361 361 362 361 362 363 362 363 364 365 365 364 365 366 363 366 364 365 362 361
315 315 311 310 310 310 310 309 309 307 300 303 307 308 305 298 311 316 315 321 325 327 331 334 338 340 341 341 341 341 341 342 343 345 345 343 344 346 346 346 348 349 350 351 351 353 356 358 362 361 359 359 360 358 356 355 357 357 355 355 354 354 354 354 353 354 354 355 353 353 354 354 353 350 350 355 357 358 360 362 359 359 359 360 362 363 364 362 360 360 360 363 366 368 363 364 363
313 310 308 308 307 309 308 308 309 300 298 306 309 306 308 297 311 314 325 328 330 329 328 331 333 337 339 340 340 340 341 341 342 343 343 344 345 346 347 346 346 349 349 350 351 352 354 357 361 361 360 359 358 356 357 356 356 358 357 357 355 356 355 352 353 353 353 353 352 351 353 353 353 351 352 351 354 353 358 359 361 358 358 358 360 364 363 363 362 360 360 362 363 366 368 365 363
310 308 308 301 301 301 297 302 297 298 298 306 308 308 304 303 317 322 325 328 330 333 333 331 332 335 338 340 339 341 340 341 342 343 344 343 343 344 344 346 347 349 350 351 351 351 353 356 358 359 359 360 358 355 357 356 357 358 358 357 357 356 355 354 354 353 354 353 351 351 354 353 353 351 351 350 352 354 356 359 359 355 357 359 362 366 368 369 364 362 361 361 362 365 364 364 361
307 305 304 300 297 297 293 297 301 299 302 308 306 312 301 314 320 327 326 329 332 334 334 333 334 335 337 339 340 340 340 341 343 344 345 346 345 343 344 346 346 347 349 351 351 352 354 355 359 358 359 360 359 356 356 354 356 360 359 358 357 356 357 356 354 352 352 353 352 352 350 350 351 351 349 351 350 351 351 356 359 359 361 362 365 368 369 369 370 366 364 364 361 363 365 366 365
307 308 306 303 302 297 294 298 296 298 300 305 312 304 302 305 316 326 329 331 333 336 336 336 336 337 337 338 339 340 341 342 342 342 343 344 346 348 347 348 348 346 346 348 351 352 354 356 358 359 359 359 358 357 356 355 356 359 361 359 357 357 356 356 355 354 354 352 351 351 352 349 347 349 349 352 355 353 353 354 357 358 359 364 368 369 365 368 371 369 365 366 366 364 366 365 361
309 310 310 304 303 309 299 302 301 301 302 301 306 304 312 312 327 329 331 330 332 334 335 336 335 335 335 335 335 337 338 340 341 341 343 345 347 349 350 350 351 348 347 346 348 351 353 356 358 359 360 360 359 359 357 356 357 357 360 360 358 357 358 357 357 357 356 354 353 351 352 354 351 349 352 353 353 355 354 353 356 358 361 364 368 369 369 366 370 366 366 367 366 363 364 365 364
307 308 303 307 312 308 305 304 305 304 301 299 308 306 314 322 324 326 328 328 329 331 331 332 333 333 335 333 334 334 336 340 342 341 341 344 347 349 350 352 352 350 349 349 350 352 355 356 356 358 359 361 359 360 358 358 358 357 359 359 358 357 356 355 353 355 354 356 356 355 352 352 352 354 351 354 354 356 355 356 358 358 361 362 367 369 367 367 368 366 363 366 365 363 365 365 362
309 304 308 313 315 312 306 300 303 300 296 299 303 302 305 308 306 324 325 325 327 328 330 331 332 333 332 331 333 336 337 340 342 343 344 344 345 347 348 350 352 353 352 350 350 352 354 356 356 356 357 358 358 359 357 358 358 357 357 359 359 358 355 353 352 352 353 354 356 357 355 352 351 351 353 351 352 352 357 362 363 363 363 364 364 364 365 366 369 366 365 368 366 368 366 367 366
310 308 314 306 302 301 306 302 296 296 295 298 302 302 304 305 308 316 319 321 323 326 329 329 328 330 331 332 335 337 338 339 341 342 343 343 343 345 346 347 351 353 354 354 352 349 349 351 355 355 356 355 356 356 357 356 358 356 354 355 356 356 355 354 352 354 355 353 353 353 353 353 353 355 355 356 357 355 359 361 363 363 363 364 365 364 365 367 369 366 364 364 365 368 366 366 367
314 314 311 313 309 305 303 304 304 302 297 297 300 302 301 308 311 314 318 321 324 324 326 326 328 329 330 334 334 334 336 339 341 342 342 342 343 345 346 348 349 350 351 352 353 352 348 349 352 355 354 355 358 356 356 356 356 356 354 354 354 357 357 354 354 354 352 352 353 353 354 352 354 355 356 356 356 358 358 359 358 358 358 361 361 360 362 365 367 366 363 359 360 366 366 366 364
307 307 307 308 308 312 309 308 304 300 299 298 297 296 303 311 318 318 319 322 325 325 325 327 328 331 333 335 335 336 338 338 339 340 341 341 342 344 345 347 348 350 351 352 352 352 352 350 350 353 354 352 353 354 355 356 356 355 355 354 352 353 353 354 353 354 353 353 353 354 354 354 356 355 357 356 358 360 361 360 358 359 357 360 362 362 362 364 365 366 366 364 364 365 365 364 366
309 308 307 308 305 303 300 300 307 305 301 296 297 297 306 313 322 322 320 324 325 327 326 326 330 331 335 336 336 338 338 338 338 338 339 340 340 342 344 345 347 347 348 350 351 351 352 353 350 349 352 354 352 353 355 356 357 355 354 353 353 352 353 353 352 353 354 352 353 353 355 355 354 356 356 355 358 358 360 359 359 358 360 358 361 364 362 362 363 362 363 359 359 364 366 364 363
Wind_Speed
9 7 3 1 1 2 4 4 3 4 3 5 6 4 7 5 6 7 8 7 6 5 3 8 9 8 2 4 6 6 5 6 4 2 3 4 9 12 10 12 14 13 11 10 10 11 10 8 7 9 10 10 10 11 12 12 12 13 13 13 13 12 13 13 11 11 10 11 12 12 13 13 13 13 13 12 12 12 12 12 12 12 12 13 13 13 12 12 12 12 12 11 12 12 12 11 11
6 3 3 1 1 3 2 1 3 5 4 7 7 5 7 7 4 9 7 5 5 6 7 9 7 4 2 5 4 9 11 10 8 8 9 10 12 9 11 13 14 13 10 9 10 10 9 10 8 8 8 9 9 10 12 12 12 12 13 12 12 12 12 13 13 10 11 10 10 11 12 12 12 12 12 12 12 11 11 11 11 12 12 12 12 12 12 12 12 12 11 11 11 11 11 10 9
3 3 3 2 3 4 3 3 3 3 4 7 7 7 3 7 8 8 8 6 8 9 9 9 7 5 7 5 6 4 8 7 10 11 9 12 11 8 12 13 13 12 12 9 9 9 8 9 9 8 8 9 10 11 12 12 12 12 12 12 12 11 11 11 12 11 12 11 10 9 11 11 11 12 12 11 11 11 11 11 11 11 10 11 11 11 11 11 11 11 10 11 11 11 10 9 8
2 2 2 2 2 1 3 4 3 2 5 7 8 5 4 7 8 7 5 6 8 8 9 9 5 4 1 5 7 7 8 7 7 11 10 9 7 11 12 13 12 10 10 8 8 8 9 11 10 8 9 11 11 11 12 12 13 12 12 12 12 11 10 10 11 11 11 11 10 9 10 10 11 11 11 12 12 11 11 11 11 10 10 11 10 10 11 11 10 10 10 10 11 10 8 8 6
2 1 2 3 4 2 3 2 1 2 6 4 7 6 6 5 8 6 7 6 6 7 8 6 5 5 8 8 4 3 7 9 9 8 9 8 13 12 13 15 12 10 10 9 7 7 9 13 9 9 10 10 11 11 11 11 12 12 11 12 12 10 9 10 10 10 10 10 9 9 10 10 10 11 12 11 11 11 11 11 11 11 10 10 11 11 11 10 10 11 10 10 10 8 8 7 7
2 2 2 3 2 3 4 3 3 7 7 4 7 7 7 6 7 7 9 6 6 6 5 5 2 7 5 8 7 8 4 2 7 9 10 11 14 14 13 11 11 10 10 9 9 7 10 14 11 10 10 10 10 11 11 11 11 12 11 11 11 10 10 10 10 9 9 8 9 9 10 10 10 11 11 11 11 11 11 11 11 11 11 10 11 11 11 11 10 10 10 9 8 7 7 6 6
1 3 3 4 3 2 2 1 5 7 7 4 9 8 7 7 7 7 8 8 5 6 4 4 6 7 6 6 10 9 7 7 6 9 8 14 15 13 13 10 10 11 12 9 9 9 12 13 11 10 10 9 10 10 11 11 11 10 11 12 11 10 10 10 10 10 9 8 8 8 9 9 9 11 11 10 11 11 11 11 11 10 10 11 10 11 11 10 10 9 8 8 7 7 6 6 5
1 4 2 5 3 3 2 2 4 3 6 4 5 8 6 6 6 6 7 4 7 5 5 4 2 4 7 1 5 7 6 4 10 11 16 13 14 13 11 11 11 12 11 10 9 10 12 13 11 10 10 10 10 10 10 11 11 10 10 11 11 10 10 9 9 9 9 9 7 8 7 7 8 10 10 10 11 11 11 10 10 10 10 10 10 10 10 9 9 8 7 6 6 5 5 5 5
2 6 2 4 4 2 4 2 5 4 8 4 5 5 4 5 4 5 5 5 7 4 6 4 3 1 6 9 8 7 7 9 12 14 15 14 14 13 9 10 11 11 11 10 10 10 10 13 11 10 10 10 10 9 10 10 11 10 10 11 11 10 10 10 8 8 8 8 8 8 8 6 5 8 10 10 10 10 10 10 10 10 9 9 10 9 8 8 7 7 6 6 5 5 4 4 4
4 3 3 4 2 5 5 4 5 5 6 4 5 5 5 4 4 2 4 5 5 6 6 3 1 6 8 10 10 6 7 11 13 14 14 14 13 11 11 10 10 11 10 11 10 11 9 13 12 11 10 10 9 9 9 10 11 10 11 10 11 11 10 9 9 8 8 7 8 7 7 6 5 5 9 10 10 10 10 9 9 8 8 8 8 7 7 7 7 6 6 5 4 4 4 4 4
5 4 2 5 6 5 6 5 5 6 7 5 6 4 3 2 3 4 5 7 4 6 5 4 7 9 8 10 7 5 9 12 14 14 14 13 12 11 10 10 10 11 10 10 10 10 11 10 13 11 11 10 9 9 9 10 12 11 11 11 10 10 10 10 9 8 8 8 7 7 7 5 6 5 6 10 10 10 9 9 8 7 7 7 6 6 6 6 6 6 5 4 4 4 4 4 4
4 4 5 6 6 6 8 6 7 7 6 6 6 4 3 3 3 4 5 6 5 6 5 3 6 9 10 10 8 8 11 12 13 13 13 12 10 10 10 9 10 10 10 10 10 10 10 10 10 11 11 11 10 9 8 9 12 13 12 12 10 10 9 9 8 8 9 8 8 7 8 6 5 3 3 9 9 9 8 7 6 6 6 6 6 5 5 5 5 5 5 4 4 4 4 4 4
6 3 6 6 4 2 8 7 6 8 7 5 6 3 3 4 3 4 4 6 4 5 6 5 12 5 9 8 8 10 12 12 12 13 12 10 10 9 9 9 9 10 8 9 9 10 10 9 8 9 10 12 11 10 8 9 13 12 12 11 11 10 9 9 9 9 8 8 8 8 9 7 3 1 4 9 8 8 8 6 5 5 6 6 5 4 4 4 4 4 3 3 3 4 3 4 5
4 4 5 5 1 6 6 6 6 7 5 7 4 4 3 3 3 4 5 6 5 6 7 10 5 7 11 11 9 10 11 12 14 12 10 10 9 9 10 9 10 9 8 8 9 9 8 7 7 7 9 9 9 9 7 9 11 9 9 10 11 10 10 10 10 9 9 8 9 10 10 7 3 5 5 7 8 7 6 5 5 5 5 4 4 3 3 3 3 3 3 3 4 4 4 4 5
4 3 2 5 8 7 5 7 7 6 7 5 4 4 6 3 4 3 3 6 7 6 8 5 7 2 7 9 10 11 13 14 14 12 11 11 10 9 10 9 9 9 8 7 8 8 8 7 7 7 6 7 8 8 5 4 7 7 8 8 10 10 10 10 10 9 9 9 7 9 8 5 5 5 7 6 7 6 5 5 5 5 4 3 3 3 3 3 3 3 4 4 4 4 5 5 5
4 5 1 3 8 7 5 3 3 5 8 5 6 3 6 5 2 4 3 3 7 7 5 7 2 4 8 3 13 15 17 16 14 12 11 12 10 9 9 9 9 8 7 7 7 7 7 7 7 6 6 6 7 8 5 3 7 9 7 7 7 6 6 8 7 7 8 6 7 8 6 4 1 5 8 7 6 5 5 5 4 5 4 3 3 3 3 3 3 3 4 4 4 5 5 5 5
3 4 3 4 5 4 4 3 3 4 8 7 6 6 6 5 3 3 1 4 8 7 5 5 5 2 6 7 16 18 17 15 14 14 13 11 9 8 8 7 7 7 5 7 6 7 8 7 7 6 7 7 7 8 11 5 4 8 8 9 7 8 6 5 4 6 5 5 5 6 5 3 4 6 7 5 5 4 4 4 5 5 4 4 3 3 2 2 3 3 4 4 3 3 4 8 5
0 4 4 6 5 7 5 6 5 5 6 7 6 4 6 7 6 5 5 4 5 6 5 7 7 8 10 15 17 17 17 16 15 15 13 11 9 9 8 8 8 8 7 6 6 7 6 7 7 6 7 7 6 6 8 10 4 2 2 4 6 7 6 6 5 5 5 3 6 4 3 3 8 5 4 3 4 4 5 3 4 3 3 2 2 2 2 1 1 2 2 2 2 1 5 2 7
4 0 4 3 5 5 3 5 4 2 6 6 4 4 2 6 5 6 5 7 7 6 6 8 9 11 13 15 17 17 17 16 16 14 14 13 10 11 9 8 8 8 7 7 6 8 7 6 7 7 7 7 7 5 5 9 11 7 4 3 2 2 4 5 2 4 4 4 5 5 8 9 7 4 3 3 2 2 3 1 1 1 2 1 2 2 3 1 1 1 1 2 1 5 5 2 6
8 5 3 2 3 4 3 2 3 3 2 5 5 5 2 5 1 5 4 7 6 4 7 8 8 12 14 16 17 17 16 15 15 14 14 13 11 11 9 10 9 8 8 7 7 7 7 6 7 6 7 7 6 5 5 5 8 10 11 11 7 6 4 3 7 7 10 10 11 11 7 5 5 3 4 6 8 4 6 6 3 5 6 6 4 6 9 3 3 4 2 2 7 3 3 3 4
4 5 1 2 2 1 3 3 1 2 2 3 4 5 5 3 2 3 2 6 3 2 4 4 9 13 16 17 17 16 16 15 15 13 13 12 11 9 8 9 8 8 7 7 7 7 8 7 7 6 7 7 6 5 4 4 5 5 5 5 8 8 10 12 9 10 6 7 5 4 5 5 4 4 3 3 1 2 2 3 4 3 3 3 1 2 1 2 3 2 4 4 2 2 3 3 3
4 6 5 1 3 3 6 5 2 2 1 2 4 6 3 3 3 3 3 4 4 2 2 5 9 14 17 18 17 15 16 15 15 14 13 13 12 10 8 8 8 8 7 7 8 8 9 8 8 7 7 7 6 5 4 3 4 4 4 4 4 4 4 4 4 5 5 4 3 2 3 4 3 3 3 2 2 2 3 3 3 3 3 2 1 1 2 2 1 2 2 1 2 4 2 3 4
3 3 5 2 3 5 4 3 3 2 2 1 4 2 1 3 2 1 2 3 4 2 2 5 9 13 16 16 16 16 16 15 15 14 13 12 11 10 9 8 8 8 7 7 8 7 8 9 8 7 7 6 7 4 4 4 4 2 3 3 4 4 3 3 3 4 3 3 2 1 2 3 3 3 4 2 2 2 3 3 3 2 2 2 1 2 2 2 1 2 2 2 1 2 4 4 2
1 6 3 4 6 6 3 3 2 2 2 2 1 0 2 1 4 2 1 2 2 2 2 7 9 12 15 16 16 16 16 15 14 13 12 11 11 10 8 8 7 7 7 7 8 7 8 9 8 7 6 6 6 6 4 4 3 3 3 3 3 2 2 3 2 3 3 2 1 1 1 1 2 3 3 3 3 2 3 3 3 2 3 2 2 1 2 2 2 2 2 3 0 2 3 3 5
4 8 8 2 1 3 4 2 2 3 2 2 1 2 1 2 2 3 0 1 2 6 8 9 10 11 13 14 14 14 14 13 13 13 10 9 9 9 8 6 7 7 8 8 7 7 8 8 9 8 7 7 5 5 5 4 3 3 3 3 3 2 3 2 2 2 3 1 2 0 1 1 2 2 3 3 2 3 2 2 2 2 2 2 1 2 3 2 1 3 2 3 2 1 3 4 2
2 4 10 7 3 3 1 1 2 2 2 1 2 2 2 0 2 4 1 1 3 8 11 11 12 12 12 13 13 13 12 12 12 12 11 9 10 10 9 8 8 8 8 9 8 7 8 9 9 9 8 7 6 5 4 4 3 3 3 3 2 2 2 1 2 3 2 2 3 1 0 2 1 2 3 2 2 2 2 2 1 1 2 1 0 3 2 1 2 2 2 1 2 1 1 5 3
3 4 6 8 6 5 5 5 4 3 1 1 3 1 2 1 3 3 3 1 5 10 11 11 11 12 10 11 11 11 12 12 12 11 11 10 9 9 9 9 8 8 8 9 8 7 7 8 9 8 8 7 6 6 5 4 4 4 3 3 3 3 2 2 2 1 2 2 3 2 1 1 2 0 3 1 3 3 3 1 1 1 1 2 1 2 2 2 2 2 3 2 2 2 3 3 2
2 5 6 7 7 4 5 4 4 4 2 3 3 4 3 3 4 3 4 4 6 9 11 10 8 6 7 9 9 9 10 10 10 11 12 11 9 9 10 8 8 8 8 8 7 7 8 9 9 9 8 8 6 7 5 5 4 4 3 3 3 3 2 2 2 2 2 1 3 2 1 2 1 2 1 1 2 2 2 2 2 1 1 1 1 2 2 2 1 2 2 2 2 1 1 0 1
4 7 5 6 7 7 7 5 5 6 2 2 1 3 7 6 3 1 2 3 6 9 10 10 11 3 3 6 7 7 9 9 9 9 10 9 9 8 10 9 8 7 6 8 8 8 8 8 7 8 8 8 8 7 6 5 5 4 4 3 3 3 3 3 2 2 2 2 2 2 2 2 1 1 1 1 1 2 2 1 2 1 1 1 1 3 2 1 0 1 2 1 0 1 1 1 2
5 5 4 6 7 5 5 4 6 7 3 3 3 2 6 4 1 2 3 5 7 10 8 11 10 4 4 5 5 7 7 9 9 8 8 8 8 8 8 8 8 6 5 5 8 9 7 6 6 6 8 9 9 7 5 5 5 5 3 4 3 3 3 3 2 2 2 2 2 2 3 3 2 1 1 2 3 2 3 2 0 1 1 1 1 1 1 0 1 2 2 1 1 2 1 2 3
5 3 7 3 3 3 4 6 7 6 5 6 4 0 4 4 2 2 4 5 8 10 14 11 8 5 5 8 7 5 8 8 10 10 9 8 7 6 7 7 8 7 5 6 8 8 8 7 6 6 7 8 9 7 6 5 5 5 4 4 4 4 3 3 3 2 3 2 3 4 4 4 3 2 1 1 2 2 3 3 2 1 2 1 0 2 3 1 1 2 2 4 3 1 2 1 2
4 5 6 6 3 4 7 6 7 4 5 5 5 3 4 3 1 3 4 5 7 7 15 11 12 11 7 5 7 7 9 9 9 10 9 8 7 6 6 7 8 8 6 6 7 7 8 7 7 7 9 9 9 7 6 5 6 5 4 3 3 4 3 3 3 3 3 4 5 5 5 4 3 2 3 2 3 3 2 2 2 2 1 1 1 1 3 2 1 2 3 4 2 5 4 4 1
4 8 4 4 2 6 7 4 5 3 4 5 6 3 4 4 3 3 3 4 5 5 10 16 14 14 11 6 6 8 8 8 8 8 7 7 8 6 6 7 7 8 7 7 7 8 8 9 8 8 9 9 8 8 7 6 5 6 5 5 5 5 5 5 4 4 4 5 5 5 5 5 4 4 4 3 3 3 2 2 3 3 1 0 1 1 2 1 3 1 1 2 3 3 5 5 4
3 1 3 6 5 4 2 7 3 6 6 4 6 6 3 3 4 5 4 5 6 5 6 17 12 11 9 7 8 6 6 8 9 7 6 8 6 7 6 6 8 9 6 8 8 8 9 8 8 7 7 8 7 7 7 6 5 5 5 5 5 5 6 5 4 5 5 5 5 5 5 5 4 5 4 3 3 3 1 1 1 2 2 0 1 1 2 1 1 2 1 3 3 5 5 5 5
3 2 2 2 1 1 4 2 5 5 5 5 5 4 1 2 1 2 3 3 4 5 3 13 11 11 11 8 8 8 7 7 5 5 5 10 8 7 7 8 9 10 7 8 8 8 7 7 7 7 6 7 7 7 7 7 7 5 6 6 6 6 5 4 4 4 6 6 5 5 5 5 5 5 5 4 3 4 3 2 2 1 1 1 1 2 2 1 3 3 4 5 3 4 4 5 5
5 6 5 3 4 4 5 4 2 5 4 4 4 2 2 1 1 1 3 3 3 3 3 5 10 8 10 9 9 8 7 6 2 3 7 10 11 8 7 7 7 7 8 6 8 8 8 8 7 7 7 7 7 7 7 7 6 6 6 6 6 6 6 6 5 5 5 5 5 5 6 5 5 5 5 4 3 3 2 2 1 2 1 1 1 3 1 1 2 2 3 2 2 6 5 3 4
7 6 5 3 3 3 4 3 3 2 5 2 7 3 6 1 1 3 2 2 3 4 5 5 8 9 9 10 10 10 9 8 2 2 4 5 7 7 6 6 6 7 7 8 9 9 9 9 8 9 8 7 7 7 7 6 6 6 6 7 7 7 6 6 6 6 5 5 5 6 6 6 6 6 5 5 4 3 2 1 1 1 1 0 1 1 2 4 2 4 0 3 4 4 5 4 1
8 7 6 4 2 3 3 1 1 2 6 6 4 5 2 1 1 1 2 3 3 3 4 4 4 8 9 10 11 12 10 7 5 5 6 5 6 6 6 5 7 8 7 9 9 9 9 9 9 9 8 8 7 7 6 6 6 6 7 7 7 7 7 7 6 6 6 6 6 5 6 6 6 6 5 5 3 3 3 2 2 0 0 1 2 2 2 2 1 4 3 4 4 3 4 4 4
8 6 5 5 1 7 4 2 2 4 5 6 4 4 3 3 2 3 1 2 2 3 2 1 3 4 6 9 10 10 10 10 9 9 7 6 6 5 5 6 7 8 8 8 8 9 9 9 8 8 8 8 8 7 7 6 6 5 7 6 6 6 6 7 6 6 6 6 7 7 6 6 6 6 6 5 4 4 2 1 2 2 0 1 1 1 1 2 3 3 4 3 4 4 5 2 1
7 6 6 7 4 4 5 3 5 4 4 3 3 2 3 3 2 2 2 3 3 1 1 2 2 4 6 7 9 9 12 12 12 9 5 1 3 4 5 5 6 6 4 3 6 8 7 7 8 9 8 8 6 6 8 10 9 9 7 5 6 4 5 6 5 5 6 6 7 8 7 6 7 7 7 6 5 3 2 1 0 0 1 1 1 1 2 3 2 3 3 3 3 6 5 3 2
7 7 5 6 4 1 7 5 4 3 4 0 2 2 2 2 1 3 5 2 3 2 2 2 4 4 3 3 4 7 11 12 12 10 5 1 4 4 4 4 5 7 5 4 6 7 6 9 9 9 8 8 7 9 8 7 7 7 7 6 6 5 5 6 6 6 7 6 6 8 8 7 7 7 7 6 4 3 2 1 0 0 0 1 2 2 3 3 2 3 2 3 4 5 5 4 3
5 7 7 7 5 3 3 6 7 4 6 6 5 6 3 4 3 1 2 3 4 4 3 4 3 2 3 4 6 7 8 8 10 10 8 6 6 5 4 4 6 6 6 4 5 6 6 8 9 9 7 7 7 8 9 8 8 8 7 7 8 8 7 8 8 8 8 8 8 8 8 8 8 7 6 6 5 4 4 3 2 2 2 1 2 3 3 3 3 3 2 3 3 3 4 4 5
7 4 4 4 4 2 2 3 5 7 4 2 5 9 2 5 3 1 0 1 1 1 4 4 3 3 4 4 4 4 5 6 7 7 8 8 7 5 5 5 6 6 5 5 5 5 6 7 9 9 7 6 6 8 10 8 9 8 10 9 8 8 7 7 7 7 7 7 7 8 7 8 8 8 8 7 6 5 4 3 3 3 2 2 2 3 4 4 3 2 2 3 3 3 3 4 4
3 5 3 2 5 6 4 4 7 6 1 5 4 5 7 4 3 1 1 1 1 1 1 1 1 3 4 4 4 5 5 5 5 7 8 7 5 6 5 6 6 6 6 6 7 6 7 7 9 9 7 6 6 7 10 10 8 8 8 8 7 7 8 7 8 6 6 6 7 7 7 7 8 8 7 6 6 6 5 4 4 4 3 3 2 3 4 3 3 3 2 3 3 2 3 4 4
6 3 1 2 4 2 4 7 5 3 5 5 4 2 7 2 6 3 3 3 2 3 3 3 4 2 1 3 3 4 6 5 5 5 8 7 7 6 6 6 6 6 6 7 6 5 7 8 9 9 8 7 7 8 8 9 7 8 8 7 7 7 7 7 7 7 6 6 8 7 7 7 8 8 6 6 7 6 6 5 5 4 4 4 4 4 4 3 3 3 2 3 3 3 3 3 4
6 4 1 2 2 4 4 6 3 2 6 6 4 2 8 3 3 5 4 2 4 4 3 6 6 6 3 0 2 3 4 4 4 4 6 5 5 5 5 5 6 6 6 6 6 6 7 8 9 10 9 7 7 8 8 9 9 8 8 8 8 8 7 6 7 8 7 7 8 8 6 6 7 8 8 7 6 6 6 6 6 6 6 5 5 4 4 4 4 4 4 4 2 4 3 4 4
7 4 5 5 4 2 4 4 4 4 8 6 4 4 5 5 4 2 2 4 5 3 4 4 5 6 6 3 1 0 3 5 4 4 6 8 7 5 4 6 6 7 6 7 6 6 7 8 9 10 9 7 8 9 9 9 9 8 8 8 9 9 9 8 7 8 8 8 8 8 7 7 6 7 7 8 8 7 7 7 7 7 6 5 5 5 5 5 5 5 4 2 3 4 4 3 4
6 5 6 3 4 4 5 3 3 7 7 6 1 5 3 9 4 1 6 5 4 2 4 4 5 6 6 4 3 1 1 3 5 4 5 7 6 6 5 6 6 8 8 7 7 7 8 8 9 10 10 9 8 9 9 9 9 9 8 9 9 9 9 8 8 9 9 9 8 8 7 7 7 6 6 6 7 8 7 7 7 6 5 5 5 5 5 5 5 4 4 3 4 4 3 4 4
8 7 6 7 4 5 6 5 8 9 3 5 1 2 7 7 7 4 5 3 4 4 3 4 5 6 6 5 4 3 1 0 3 4 5 5 5 6 8 6 4 6 7 8 7 8 8 9 11 12 11 10 8 9 10 10 9 9 9 9 9 9 9 8 8 8 8 8 8 8 7 7 7 7 7 7 7 8 7 6 6 6 6 6 6 5 4 4 5 5 4 4 4 3 4 3 4
8 8 7 6 6 5 5 6 2 7 4 2 2 2 8 5 4 3 4 4 4 4 3 3 4 5 5 5 4 4 3 2 2 1 3 4 5 7 7 7 6 6 7 7 7 7 7 7 10 12 12 11 9 9 9 10 11 10 9 9 8 8 8 8 8 8 9 8 8 8 9 8 8 8 8 7 7 8 8 7 7 7 6 6 6 6 6 5 4 5 4 5 5 4 3 4 5
6 5 5 6 5 5 5 5 6 1 3 4 2 6 2 4 4 2 5 4 3 4 3 3 3 3 3 3 4 4 4 4 2 2 4 4 4 5 6 6 7 5 5 6 6 7 7 7 9 11 12 13 13 11 9 10 10 10 10 10 9 8 8 8 8 7 8 8 8 9 7 8 8 8 8 7 7 7 7 7 7 7 7 7 7 7 6 6 5 5 5 5 5 3 4 5 5
2 3 3 7 7 2 7 6 7 4 2 4 6 3 3 3 2 4 4 4 4 4 4 3 3 2 2 2 4 4 4 4 4 3 2 2 3 4 6 6 6 6 6 6 7 6 8 8 8 10 11 12 13 13 11 10 10 10 11 11 10 10 8 8 7 7 6 7 8 7 8 7 7 6 6 6 7 8 7 7 7 8 7 8 8 8 7 6 5 5 5 5 6 5 4 6 6
5 5 7 3 5 6 3 3 3 5 6 4 3 4 7 6 6 5 5 5 5 4 3 2 3 3 1 3 3 4 4 4 3 3 2 2 2 3 4 6 6 6 6 7 8 8 8 8 8 9 10 11 12 13 13 12 11 10 11 11 11 11 11 10 9 10 10 8 7 7 7 8 8 6 6 7 7 7 7 8 8 8 9 8 8 7 7 6 5 5 6 5 6 6 5 5 5
5 7 5 4 1 5 5 4 4 6 6 3 2 3 3 5 3 6 7 6 6 5 3 2 3 2 2 3 3 4 4 3 3 3 2 2 2 3 3 4 6 6 7 7 7 8 7 8 9 9 10 11 12 13 13 12 13 12 11 11 12 11 11 12 10 10 10 9 8 7 8 7 7 8 7 6 7 8 8 8 7 7 7 8 8 8 8 7 6 6 6 5 6 5 5 5 5
8 5 4 5 3 5 3 5 6 4 4 1 4 1 1 5 4 6 7 6 6 6 4 3 3 3 2 3 3 3 2 2 3 3 3 3 3 3 3 5 5 6 7 8 9 8 8 9 10 10 11 11 12 11 12 11 12 10 10 12 12 12 11 10 10 10 9 9 10 9 9 8 7 7 6 6 6 8 8 8 8 8 7 8 7 8 7 6 6 6 6 6 7 6 5 6 6
2 5 5 2 5 1 4 1 4 5 2 6 5 5 4 1 6 4 6 5 6 6 5 4 3 2 2 3 2 3 3 3 3 3 3 3 4 4 4 5 6 6 6 7 8 9 11 12 11 11 11 11 11 12 11 12 12 11 11 12 12 11 12 11 10 10 10 10 10 10 10 10 9 8 8 8 8 8 8 8 9 9 9 8 8 8 8 8 7 7 7 6 5 5 6 6 6
7 7 6 4 2 1 4 2 4 5 4 2 5 1 4 6 4 2 4 6 6 6 5 4 3 3 3 3 3 2 3 3 3 4 4 4 4 5 5 5 5 6 6 7 7 8 10 11 12 11 12 12 12 12 12 11 11 12 12 13 13 13 14 12 13 12 11 11 10 10 10 9 9 9 8 9 9 9 8 8 8 7 8 7 7 7 6 6 6 6 7 7 6 5 6 6 5
4 5 5 3 4 6 6 4 2 3 4 1 4 3 5 6 3 2 2 5 5 5 5 4 4 3 3 2 2 3 3 3 4 5 5 5 5 6 6 5 5 5 6 6 7 8 8 9 11 11 10 10 12 12 11 11 11 11 12 13 13 13 13 12 14 13 13 12 11 11 11 10 10 9 9 9 9 9 9 9 9 8 7 7 7 7 7 7 7 8 8 7 7 7 7 6 6
Wind_Direction
166 183 178 111 300 279 259 202 216 152 221 93 99 97 81 73 83 109 98 155 124 109 107 114 115 142 65 61 67 47 61 28 23 272 56 132 132 128 136 134 133 140 139 143 141 148 153 137 129 129 132 129 126 127 120 119 115 115 113 120 118 118 120 115 116 121 123 122 117 116 114 111 111 109 107 106 106 105 103 102 99 97 95 94 94 93 93 90 87 86 84 82 81 79 79 78 76
170 170 147 103 226 279 184 337 276 140 141 99 81 89 86 100 126 89 92 67 88 116 124 120 129 72 82 99 92 117 72 46 35 83 94 118 128 125 125 134 141 137 137 146 149 146 146 141 138 134 138 136 135 128 121 118 118 117 118 118 117 118 121 122 122 137 120 105 104 108 112 113 112 110 108 107 104 102 101 99 98 96 95 96 93 90 89 87 84 83 83 83 79 78 77 78 79
169 173 150 143 237 258 309 227 230 120 142 98 88 82 144 94 83 85 80 82 100 117 129 121 111 113 122 123 94 338 96 73 93 99 106 126 127 128 136 137 136 138 142 144 148 141 142 139 145 149 146 144 139 132 125 120 120 118 119 118 118 119 120 122 124 122 116 122 109 111 116 114 111 109 108 106 103 100 98 97 96 96 93 90 91 90 87 83 81 81 81 81 79 74 75 77 80
165 177 227 189 271 222 257 211 263 128 82 93 108 86 71 81 88 90 79 93 104 136 136 132 112 6 346 106 73 90 97 86 81 116 122 154 123 136 143 138 140 144 136 140 139 139 139 139 150 153 167 147 139 133 125 124 120 119 121 123 120 119 121 124 120 118 114 112 120 114 119 116 114 111 109 107 105 103 100 97 93 90 90 89 89 86 84 82 82 80 79 78 78 79 78 74 71
204 191 227 259 292 208 288 308 339 334 93 78 100 99 90 80 93 93 93 112 127 141 151 132 116 96 58 60 19 45 74 94 111 117 127 114 121 135 142 142 151 137 132 132 141 142 129 132 150 158 151 140 137 132 127 125 120 120 121 123 118 115 120 122 119 116 114 112 115 121 123 118 116 112 109 105 103 101 99 95 91 89 88 88 89 88 85 85 82 79 74 75 78 78 72 69 61
225 220 247 257 285 354 256 224 147 76 69 63 107 91 88 93 102 109 113 121 128 153 130 142 76 140 103 54 20 69 37 124 119 125 125 118 132 134 135 145 140 135 130 139 145 137 138 136 151 148 141 138 137 132 129 126 119 117 121 116 121 128 126 119 117 114 113 114 116 119 121 118 115 112 108 108 105 102 99 97 94 91 89 89 87 86 86 83 78 76 74 74 75 75 68 54 56
255 239 206 210 220 201 291 339 80 103 90 11 92 105 101 102 106 110 116 125 122 140 171 82 112 126 121 118 92 59 61 96 149 123 123 128 129 134 140 145 142 134 137 142 137 138 131 139 144 144 142 139 137 137 135 130 123 124 126 123 126 127 124 122 119 118 116 109 105 111 112 111 115 111 108 108 107 102 100 97 95 95 92 91 90 86 83 81 78 74 71 66 64 59 53 46 33
296 281 128 248 169 185 205 54 73 57 108 40 66 103 110 107 105 103 116 147 143 153 168 129 134 70 78 229 84 73 91 53 100 116 120 132 132 135 145 142 141 139 139 133 133 120 130 141 142 142 142 142 141 141 138 135 129 126 128 128 128 124 122 118 116 116 117 106 104 108 102 98 106 109 109 108 106 104 100 99 95 93 95 93 89 82 80 79 77 73 71 65 55 48 44 32 26
218 262 225 301 218 180 117 93 97 58 105 116 100 57 96 124 109 105 101 101 132 136 141 153 92 258 96 100 78 84 76 104 108 117 128 130 134 137 143 143 143 139 139 137 124 130 146 139 143 143 143 143 144 142 138 137 134 130 129 131 129 124 120 120 117 116 112 107 105 111 108 95 85 108 109 108 104 105 102 96 92 94 92 88 80 77 76 76 74 72 66 58 52 46 33 25 14
230 262 198 240 268 159 134 157 161 102 104 85 102 123 141 145 126 114 108 107 89 130 99 72 142 98 126 107 109 107 103 118 123 128 130 133 133 138 140 142 138 138 142 134 151 145 137 143 144 144 146 145 143 143 139 137 134 130 127 128 131 129 126 126 128 124 115 107 105 103 95 87 82 98 111 109 104 101 100 94 89 83 81 80 82 83 79 71 65 63 59 50 49 41 26 13 12
258 186 289 246 208 158 162 148 118 141 123 131 113 114 130 158 136 90 79 99 145 97 118 161 124 115 113 82 81 86 121 128 136 132 134 130 139 144 138 137 142 147 143 138 139 134 144 146 143 145 144 146 143 141 140 140 137 132 130 129 130 133 134 134 132 126 120 114 113 101 90 65 70 65 112 105 102 95 88 85 84 83 81 81 81 78 72 66 65 59 50 49 38 27 19 6 349
284 225 190 235 203 201 133 142 133 113 121 148 115 122 142 154 138 117 120 117 132 113 95 259 109 131 114 116 113 125 134 141 130 133 135 137 140 141 138 142 146 149 146 138 142 143 143 142 150 145 146 145 145 142 143 143 138 131 131 134 129 134 135 133 127 121 121 121 121 110 101 91 72 37 96 102 97 92 87 82 80 81 72 65 61 58 58 60 54 47 44 38 19 14 11 349 337
291 271 224 256 169 193 101 135 122 136 138 123 117 105 153 159 144 99 90 89 81 82 88 101 129 167 112 104 112 133 143 131 132 138 137 145 138 141 144 139 148 147 146 147 144 136 141 146 141 153 147 148 148 144 146 143 129 128 125 135 139 137 143 141 136 130 129 129 133 130 121 95 98 185 156 100 97 92 84 79 75 65 60 53 43 43 47 50 48 39 37 21 2 355 351 339 331
285 309 266 203 359 140 156 104 143 150 120 111 93 121 154 170 110 113 113 111 77 56 78 117 130 95 105 117 137 146 136 141 139 141 145 137 140 143 143 142 148 147 149 153 141 137 135 140 144 149 152 155 145 146 123 119 125 125 134 132 137 142 148 141 140 139 136 137 143 135 117 119 172 222 127 102 98 92 89 79 74 65 58 44 39 32 33 30 26 24 8 352 356 345 334 330 325
301 263 239 206 176 139 109 158 155 147 109 137 103 150 144 71 139 149 125 105 82 93 106 106 73 223 148 158 151 150 146 147 145 147 142 138 143 145 143 146 144 147 151 152 133 134 141 142 148 146 153 155 151 139 159 132 113 123 134 135 139 145 149 146 147 140 140 146 130 109 108 146 197 197 119 116 108 102 116 114 60 59 51 36 28 33 21 14 11 0 356 353 342 339 325 320 320
328 273 264 237 163 151 122 142 182 146 115 120 117 124 127 116 125 158 75 359 112 126 178 112 273 15 137 149 148 139 143 147 147 146 141 143 146 146 146 154 152 150 151 143 148 146 143 149 155 153 155 158 164 126 119 171 145 140 143 137 131 137 147 140 143 147 133 131 128 109 142 156 296 208 133 130 108 106 62 41 55 50 47 36 33 26 28 11 353 356 348 342 346 333 327 308 295
37 325 223 197 65 128 99 139 151 79 104 114 133 160 126 135 136 85 138 188 135 128 119 87 78 198 142 106 129 135 143 144 148 149 148 146 153 154 156 158 156 153 151 157 163 155 154 156 161 156 162 163 165 145 141 168 186 154 150 142 145 151 152 131 136 141 151 138 128 145 163 130 198 214 159 133 148 96 64 52 39 45 27 23 18 14 358 354 352 340 352 354 338 340 322 273 259
158 12 331 60 72 89 33 59 78 215 134 123 149 154 145 140 155 135 171 147 109 121 115 110 89 73 94 113 127 136 142 149 154 157 156 153 164 157 165 161 168 163 164 163 166 167 170 163 165 167 160 164 166 160 150 144 168 187 133 142 151 154 153 171 170 153 150 151 144 156 165 145 227 175 133 148 123 141 115 30 37 10 8 339 349 311 313 319 331 355 346 357 350 307 273 272 108
81 279 23 43 8 43 334 32 35 87 93 112 128 159 171 112 162 158 186 146 154 139 128 128 103 105 116 128 134 142 149 154 160 163 162 162 167 162 168 158 176 161 166 167 170 175 176 170 172 169 163 165 169 172 159 136 163 164 158 169 170 166 170 155 198 172 160 161 163 168 197 195 196 133 98 43 48 78 88 43 17 303 274 267 269 261 250 240 332 17 42 24 20 235 227 80 128
79 71 16 38 264 335 4 324 50 54 95 136 149 143 134 124 183 146 214 156 168 140 135 142 132 132 138 140 145 148 155 158 164 165 167 168 169 165 167 167 170 169 171 172 164 175 176 183 175 173 164 166 177 173 169 161 164 148 174 173 147 181 172 142 209 182 184 164 190 181 200 170 149 137 130 192 216 181 140 177 199 221 215 211 268 238 195 156 239 191 115 247 213 207 88 147 59
110 141 358 9 24 233 62 3 51 62 75 126 145 150 151 128 108 207 182 172 157 145 122 129 140 146 146 151 151 155 158 161 168 168 171 170 172 171 170 173 171 168 170 170 164 174 180 181 175 175 169 172 177 171 183 175 160 176 167 161 159 187 165 177 181 179 169 174 182 189 174 159 155 149 154 139 106 113 114 143 169 158 125 109 253 74 56 83 215 96 145 198 83 136 120 81 134
164 82 124 321 6 346 39 24 67 76 85 119 158 172 110 128 187 200 212 273 109 57 121 122 141 149 155 157 157 160 163 165 169 172 174 174 173 174 168 170 167 169 157 179 172 169 180 182 180 172 179 179 174 179 184 150 171 176 171 154 173 171 177 168 171 162 155 167 189 182 157 150 155 136 125 114 133 127 154 129 137 131 144 117 87 82 65 64 71 126 123 133 175 106 88 62 61
108 122 137 160 263 300 35 49 91 163 117 166 166 72 147 202 127 58 243 264 65 82 298 144 145 154 158 158 159 164 167 168 171 174 174 177 172 177 170 169 170 171 167 181 170 173 176 180 183 177 175 182 179 179 178 183 178 180 183 162 186 165 179 182 177 150 140 153 166 190 180 153 152 149 131 128 115 165 136 151 126 146 133 106 85 92 77 84 77 98 96 114 62 147 108 93 172
225 124 159 195 214 261 306 3 126 132 100 72 10 270 252 292 206 46 277 242 288 91 183 152 145 150 155 162 169 168 170 172 172 173 175 177 174 173 172 166 165 163 177 171 177 174 176 182 178 183 173 184 180 178 192 185 184 176 167 138 216 112 201 188 158 127 127 151 136 127 308 153 161 142 123 135 137 139 149 144 152 190 139 121 110 40 84 70 102 91 74 78 127 353 126 141 120
189 139 155 163 298 295 303 332 118 139 130 100 189 212 153 347 356 293 203 342 36 119 150 142 141 157 162 164 170 171 170 174 171 170 172 173 170 168 170 161 169 162 182 175 181 179 175 179 176 186 175 185 184 187 194 192 178 192 161 186 185 163 226 182 109 125 152 141 127 172 249 193 174 164 133 116 130 122 153 164 172 128 86 80 160 109 74 88 85 100 122 145 124 174 136 140 121
288 93 149 145 189 196 199 145 160 147 137 197 237 173 167 250 302 257 306 328 124 138 148 147 155 164 169 169 169 171 175 175 168 168 171 169 170 171 174 176 174 179 177 178 181 180 178 171 186 183 183 178 186 188 196 190 186 182 189 192 174 183 212 143 152 184 136 172 153 170 305 292 237 172 121 83 135 147 155 147 165 143 118 130 90 81 96 116 109 115 106 18 82 134 99 63 297
273 149 148 153 162 164 180 183 169 174 154 164 260 241 166 140 276 174 158 89 136 146 153 142 162 162 173 168 169 173 176 174 172 167 169 170 170 177 179 183 179 177 172 176 177 179 170 181 183 182 183 180 185 192 187 192 191 194 188 190 183 203 170 190 194 198 121 172 117 131 205 238 268 207 79 143 155 162 158 161 111 103 172 81 9 112 96 47 37 26 34 27 100 16 349 72 300
204 135 140 144 154 155 170 194 162 165 182 220 249 252 223 203 211 304 110 158 161 151 152 151 140 155 167 173 170 173 177 172 174 173 172 173 173 183 181 184 182 174 174 178 172 179 177 187 183 179 183 182 191 192 181 193 195 196 186 203 196 197 177 224 184 158 157 129 117 150 177 228 268 53 54 230 166 174 157 163 146 191 59 52 46 45 38 45 41 42 65 13 4 322 276 140 340
144 177 149 144 170 160 171 182 180 198 185 212 261 289 256 191 257 93 198 159 177 152 153 132 103 183 180 204 180 184 176 174 177 181 178 177 177 182 181 180 179 174 178 179 169 180 179 187 181 180 185 178 192 196 183 196 189 196 190 204 197 190 198 213 201 182 145 131 138 167 182 200 221 205 128 221 178 199 167 181 178 122 96 312 63 25 48 270 175 207 133 183 111 259 270 3 281
164 203 240 143 196 149 184 154 176 206 141 186 223 225 96 63 66 192 209 191 171 139 124 136 155 122 42 319 224 188 183 177 191 183 182 178 184 177 179 177 171 176 177 173 174 183 174 179 180 182 186 184 192 194 188 195 191 191 191 195 201 212 203 198 206 165 135 127 145 196 193 185 202 193 199 163 257 193 173 186 313 112 96 358 49 283 264 338 32 340 2 304 94 288 330 2 328
213 159 231 249 115 329 167 182 166 204 146 202 153 302 110 137 99 186 201 202 184 157 148 154 134 110 164 215 237 225 196 190 190 183 186 184 187 183 179 179 168 170 184 188 183 183 173 175 176 182 187 187 186 194 184 196 196 200 191 202 197 207 203 204 193 164 132 165 179 188 205 181 179 190 209 227 218 242 199 183 185 126 44 328 297 88 289 3 319 309 34 326 343 228 321 355 299
197 50 268 154 129 220 151 193 186 223 151 208 227 269 81 107 41 144 182 199 202 195 134 145 150 181 197 227 214 190 214 187 195 188 182 187 189 189 188 182 174 178 186 197 181 185 179 172 175 188 180 189 184 186 185 191 198 209 198 197 208 199 209 201 194 171 165 181 199 185 187 180 176 179 201 223 231 215 224 172 160 85 163 240 57 38 278 281 13 293 3 305 334 338 324 288 302
170 201 203 62 342 147 145 243 181 264 143 186 198 308 167 131 101 116 145 186 203 219 141 135 170 182 186 196 222 221 207 191 198 204 190 192 186 201 190 192 163 189 194 194 189 188 186 172 179 193 179 182 183 178 186 188 198 196 204 197 204 192 211 199 188 178 183 197 202 181 169 177 175 182 195 209 233 215 214 206 160 167 189 111 299 212 265 292 303 317 103 332 325 305 299 310 322
211 326 329 45 343 348 100 150 178 172 223 169 194 232 49 49 103 104 153 187 194 199 163 127 179 176 165 197 214 226 227 196 198 208 211 194 202 200 205 176 182 189 190 201 191 191 195 177 180 193 170 177 175 177 184 180 196 189 204 208 195 209 212 204 187 178 190 203 188 179 165 176 175 186 191 198 233 254 221 268 67 94 196 157 249 302 283 313 261 300 305 73 5 313 303 325 317
118 163 231 145 293 113 15 326 137 199 189 246 161 250 229 239 202 143 126 166 186 212 220 138 179 170 178 193 211 223 229 222 196 158 246 290 256 196 214 189 194 185 184 210 187 187 195 183 172 173 177 180 174 180 179 189 188 188 207 205 191 205 214 210 197 197 187 197 187 163 167 181 175 188 187 192 215 211 207 177 221 140 234 186 229 245 230 23 331 350 25 18 318 287 319 311 320
337 337 347 322 319 30 16 25 140 235 190 207 192 29 330 236 90 111 146 159 207 196 183 145 159 186 179 189 208 210 217 227 144 196 204 203 236 234 209 207 201 191 194 183 185 182 188 179 173 164 180 183 171 184 182 193 190 187 199 202 198 199 205 196 203 200 202 189 174 169 168 183 177 185 186 197 207 221 217 191 181 193 216 239 240 286 341 246 44 324 56 338 305 289 254 283 288
307 284 284 323 315 81 79 72 25 286 256 86 74 218 244 226 130 75 104 163 214 203 206 188 168 178 194 193 208 205 198 208 170 265 250 213 237 239 220 208 204 189 189 185 183 184 183 180 171 168 173 179 178 186 192 196 178 190 209 207 201 188 196 195 199 197 199 194 173 180 166 181 180 188 189 198 199 197 219 155 166 213 250 307 303 306 8 352 359 319 215 213 280 281 308 293 16
289 292 288 314 260 69 52 50 76 199 255 81 154 205 203 304 20 96 140 236 210 211 208 198 186 176 191 208 206 196 192 196 205 218 221 229 228 225 214 191 199 195 183 192 186 184 182 182 176 167 171 174 185 193 190 193 189 182 203 209 202 186 182 191 196 194 197 179 166 177 178 180 181 189 189 191 200 205 193 194 168 145 8 38 351 329 313 285 296 278 336 297 267 319 294 294 357
265 271 292 284 76 103 106 127 191 152 248 112 184 177 88 45 45 84 230 249 16 32 353 293 222 208 198 200 200 185 180 187 208 209 211 231 241 227 207 194 195 195 186 188 183 184 179 181 176 165 170 174 186 201 176 193 189 221 211 200 211 189 182 190 192 189 193 187 173 183 183 177 183 190 189 191 196 202 184 174 211 141 2 357 301 299 311 287 259 282 279 293 310 291 291 269 308
255 243 223 236 91 246 174 89 162 176 282 91 182 231 85 108 107 83 19 309 346 342 340 275 255 236 224 217 207 200 191 194 204 207 190 175 250 219 203 190 190 138 194 201 189 186 178 174 173 169 167 182 172 210 191 190 192 200 209 205 200 217 181 183 189 182 192 198 181 177 180 182 189 190 192 198 190 183 171 205 195 51 127 21 289 305 301 272 267 254 278 313 311 293 295 328 307
216 248 277 259 221 34 344 158 151 176 174 221 207 210 146 49 169 191 154 214 270 258 280 228 211 227 246 259 237 216 218 204 200 194 179 67 279 241 192 188 175 169 158 199 212 189 181 175 176 169 170 179 185 191 189 203 190 191 198 197 192 194 187 185 187 187 189 192 195 179 180 185 187 199 188 199 191 180 173 166 144 11 25 293 295 255 246 277 327 311 291 276 276 298 300 308 301
211 214 249 291 8 307 92 131 174 209 192 183 242 255 186 114 103 357 55 177 207 194 245 245 249 221 219 240 227 220 234 220 214 211 191 178 246 254 167 174 181 170 165 195 209 205 179 179 176 170 168 191 203 163 179 194 194 199 187 193 191 187 189 189 191 189 185 183 196 178 178 185 184 197 193 199 191 198 186 187 184 242 222 191 253 296 318 297 249 272 291 287 282 246 306 294 303
247 119 195 269 281 303 187 198 258 269 305 234 240 283 160 193 136 29 69 258 171 139 234 262 260 267 257 240 240 234 222 215 214 212 186 179 209 236 188 187 194 170 157 211 206 208 181 181 176 175 171 186 201 167 186 190 196 196 199 195 189 185 186 184 191 193 187 183 193 179 177 181 186 197 193 195 194 201 204 194 185 220 231 238 243 252 251 260 275 297 324 293 294 346 294 291 290
206 85 143 232 232 237 234 250 256 310 48 131 242 254 300 182 98 152 281 244 39 247 161 259 261 259 254 243 234 227 233 225 214 199 181 172 190 225 213 177 199 172 174 213 223 193 176 183 178 175 170 179 193 192 186 195 201 197 196 197 192 192 186 175 180 190 187 184 185 182 178 182 182 202 201 181 201 203 210 207 204 225 241 257 266 262 267 285 334 299 283 300 303 276 292 283 312
49 67 95 213 244 281 256 252 270 318 277 230 174 239 249 246 129 183 191 193 121 77 31 50 38 19 237 248 236 215 232 229 220 193 186 177 201 207 195 191 182 196 186 206 202 191 176 177 181 181 172 175 189 192 194 195 205 198 196 194 194 196 194 174 178 185 185 185 182 188 190 185 180 191 202 195 200 214 210 214 209 223 230 238 239 251 251 248 252 291 281 264 251 260 266 300 292
109 76 103 128 202 231 246 254 254 224 271 261 164 170 294 75 120 163 150 268 133 101 68 57 37 42 45 13 233 221 206 210 219 198 179 164 207 200 199 197 198 200 198 204 209 187 176 175 178 182 177 182 183 189 194 193 201 199 198 200 195 194 194 186 186 183 186 184 187 187 190 201 187 189 191 202 205 212 214 211 213 216 226 236 250 268 283 279 259 253 254 260 303 296 293 276 271
109 175 180 180 212 222 240 269 280 264 243 252 107 252 293 290 146 132 206 70 43 95 100 68 52 43 47 44 346 290 199 190 192 189 186 179 207 209 206 202 200 207 204 201 201 189 177 179 177 185 184 186 184 187 192 193 200 199 199 203 204 198 193 188 189 181 187 186 190 189 191 193 210 195 199 191 206 211 207 213 222 215 230 235 237 247 247 253 249 237 242 215 247 268 276 290 281
199 193 216 198 186 222 225 226 234 258 254 100 267 275 211 274 123 263 94 98 78 32 74 48 24 39 42 35 21 33 331 177 176 185 195 179 200 229 211 215 212 204 207 203 202 190 183 179 180 186 186 187 191 188 193 195 198 198 202 201 205 205 200 191 191 186 188 188 190 194 193 193 201 205 212 205 201 208 202 206 218 229 228 240 234 237 250 254 263 269 257 246 247 235 267 279 300
223 214 224 249 197 217 225 187 219 213 282 90 263 227 231 243 38 69 103 108 106 71 33 43 22 41 46 40 40 34 353 235 183 180 199 198 204 232 231 222 224 211 207 202 208 201 189 182 181 184 186 187 198 197 190 197 199 200 202 201 204 206 206 206 197 193 189 190 195 194 190 196 196 211 206 213 208 210 199 204 215 223 227 231 241 253 255 257 271 274 265 251 253 252 251 258 260
214 218 224 226 257 231 252 241 309 288 151 113 221 128 262 110 98 33 97 96 77 77 71 57 34 41 39 55 45 47 58 28 344 176 227 229 219 224 234 235 220 222 213 206 212 215 203 192 187 188 182 183 191 204 199 200 200 204 202 203 199 200 206 205 202 200 195 195 196 201 197 196 198 207 210 211 220 208 211 203 209 222 227 231 229 232 239 249 252 259 250 246 252 248 266 253 251
193 257 245 249 270 278 263 246 238 330 36 127 87 244 347 268 109 215 96 94 101 108 96 83 74 38 52 64 70 73 76 100 165 194 235 237 218 231 232 227 223 227 250 246 220 213 210 206 196 197 189 183 185 197 204 204 202 201 203 205 200 198 201 203 204 207 198 195 199 196 207 207 202 205 213 206 209 226 221 214 208 221 215 221 226 228 229 230 231 238 252 255 267 246 241 256 264
143 231 268 243 253 39 267 8 312 328 280 194 172 265 35 57 135 120 153 144 158 142 139 160 115 89 52 68 63 55 59 54 45 48 43 295 269 252 249 235 226 220 212 239 245 228 217 215 209 206 204 194 187 186 193 203 207 202 199 202 204 199 198 204 203 206 207 204 200 208 195 219 226 205 205 206 204 213 218 221 214 220 220 214 217 224 231 238 216 233 239 237 235 242 234 234 248
135 205 215 39 27 263 262 214 285 272 262 266 80 228 112 124 184 167 166 177 165 171 153 147 103 103 53 71 55 43 34 50 19 34 26 3 303 271 261 259 243 233 228 219 223 230 223 224 222 218 212 207 202 195 191 191 200 209 203 198 201 200 197 201 200 198 205 203 207 209 209 206 207 219 211 203 214 202 212 217 222 222 205 218 219 217 225 224 229 237 230 229 244 244 242 253 264
196 238 99 107 22 307 274 278 154 231 256 110 275 308 137 216 145 159 172 193 181 180 170 134 130 151 130 77 56 47 25 31 37 28 22 3 2 332 310 284 262 247 237 239 237 234 233 231 234 227 221 215 209 203 203 194 189 201 207 205 200 204 204 205 205 201 203 204 202 212 216 205 212 207 215 219 205 201 200 214 223 227 223 212 219 221 214 219 217 233 233 234 241 252 254 257 257
287 50 142 235 189 203 176 260 243 248 244 352 128 332 269 311 99 185 178 208 183 183 171 181 176 153 102 96 76 61 40 31 27 20 25 359 352 331 313 301 298 290 273 251 235 239 248 242 234 233 232 223 218 210 210 208 199 194 200 207 207 202 207 211 210 208 207 206 208 202 211 211 209 213 213 221 226 212 202 204 217 223 219 225 221 227 221 220 216 229 233 231 226 228 241 249 251
131 143 193 182 263 323 239 342 342 277 8 264 125 246 87 204 48 141 161 202 189 184 177 198 149 126 93 63 53 42 47 42 24 24 4 1 338 331 321 316 308 298 283 279 263 239 236 242 235 231 233 233 227 225 210 210 210 209 199 200 207 210 206 207 208 208 210 207 208 209 208 208 214 214 208 204 215 222 217 213 209 217 223 218 217 218 219 215 220 232 238 239 237 210 232 244 258
182 217 190 180 261 47 294 191 285 328 324 341 331 225 103 76 56 37 139 172 185 186 178 176 167 127 98 78 44 27 27 21 15 12 357 354 351 339 329 315 313 304 293 278 268 259 244 238 243 231 225 231 227 223 220 209 213 214 210 201 201 205 210 208 207 203 212 213 209 210 209 214 207 214 210 204 207 217 223 222 231 230 227 224 224 233 227 224 222 225 236 248 257 250 246 251 247
270 236 220 219 187 196 229 173 199 270 277 344 296 335 94 88 104 138 126 147 166 176 170 165 144 123 90 64 62 32 12 15 7 1 1 346 353 338 328 329 317 317 308 301 279 260 250 244 240 244 235 228 233 223 222 216 211 216 215 211 206 200 207 212 213 205 205 208 212 209 211 211 214 209 211 213 212 211 210 219 220 220 230 234 225 221 238 233 227 228 234 237 235 225 236 250 260